Location: Wald
(31.7579°N, 86.6655°W)
Time: 20:39:42
(UTC+00:00)

NOSS 3-3 (A) - Pass Details

Date: 14 July 2020
Orbit: 825 x 1387 km, 63.4° (Epoch: 09 August)

Event Time Altitude Azimuth Distance (km) Brightness Sun altitude
Rises 01:16:39 0° 217° (SW) 3,355 6.9 -5.1°
Reaches altitude 10° 01:19:03 10° 220° (SW) 2,445 6.3 -5.6°
Maximum altitude 01:24:35 64° 302° (WNW) 972 4.4 -6.6°
Drops below altitude 10° 01:30:44 10° 24° (NNE) 2,695 6.4 -7.7°
Sets 01:33:29 0° 27° (NNE) 3,726 7.1 -8.2°
